Norfolk, NE

2:01 PM CDT on May 28, 2017 (GMT -0500)
Stefan Memorial

Weather History for KOFK - May, 2013

Change the Weather History Date:

Wednesday, May 8, 2013

  Actual Average Record
Temperature  
Mean Temperature 58 °F 58 °F  
Max Temperature 65 °F 70 °F 100 °F (1934)
Min Temperature 51 °F 46 °F 27 °F (1943)
Degree Days  
Heating Degree Days 7 8  
Month to date heating degree days 140 73  
Since 1 July heating degree days 6681 6496  
Cooling Degree Days 0 1  
Month to date cooling degree days 0 8  
Year to date cooling degree days 4 20  
Growing Degree Days 8 (Base 50)    
Moisture  
Dew Point 55 °F    
Average Humidity 89    
Maximum Humidity 100    
Minimum Humidity 78    
Precipitation  
Precipitation 0.44 in 0.12 in 2.35 in (1950)
Month to date precipitation 1.81 0.90  
Year to date precipitation 7.83 6.67  
Snow  
Snow 0.00 in 0.00 in - ()
Month to date snowfall T 0.2  
Since 1 July snowfall 27.3 30.7  
Snow Depth 0.00 in    
Sea Level Pressure  
Sea Level Pressure 29.93 in    
Wind  
Wind Speed 5 mph (SSE)    
Max Wind Speed 14 mph    
Max Gust Speed 16 mph    
Visibility 6 miles    
Events Rain , Thunderstorm    
T = Trace of Precipitation, MM = Missing Value Source: NWS Daily Summary

Daily Weather History Graph

Daily Weather History Graph

Search for Another Location

Airport or City:

Trip Planner

Search our weather history database for the weather conditions in past years. The results will help you decide how hot, cold, wet, or windy it might be!

Date:

Astronomy

May. 08, 2013 Rise Set
Actual Time 6:16 AM CDT 8:36 PM CDT
Civil Twilight 5:45 AM CDT 9:07 PM CDT
Nautical Twilight 5:06 AM CDT 9:46 PM CDT
Astronomical Twilight 4:24 AM CDT 10:29 PM CDT
Moon 5:26 AM CDT (5/8) 7:35 PM CDT (5/8)
Length of Visible Light 15h 22m
Length of Day
14h 19m
Waning Crescent, 2% of the Moon is Illuminated
May 8
Waning Crescent
May 9
New
May 17
First Quarter
May 24
Full
May 31
Last Quarter

Hourly Weather History & Observations

Time (CDT) Temp. Dew Point Humidity Pressure Visibility Wind Dir Wind Speed Gust Speed Precip Events Conditions
12:56 AM 55.9 °F 55.0 °F 97% 29.95 in 8.0 mi West 5.8 mph - N/A   Overcast
1:05 AM 57.2 °F 55.4 °F 94% 29.95 in 7.0 mi North 3.5 mph - N/A   Overcast
1:12 AM 57.2 °F 53.6 °F 88% 29.95 in 8.0 mi Calm Calm - N/A Thunderstorm Overcast
1:42 AM 57.2 °F 53.6 °F 88% 29.94 in 10.0 mi Calm Calm - 0.00 in Rain Light Rain
1:56 AM 55.9 °F 54.0 °F 93% 29.93 in 8.0 mi Calm Calm - 0.00 in Rain Light Rain
2:56 AM 55.9 °F 54.0 °F 93% 29.92 in 9.0 mi ESE 6.9 mph - 0.00 in   Overcast
3:56 AM 55.9 °F 55.0 °F 97% 29.92 in 7.0 mi SE 5.8 mph - N/A   Overcast
4:56 AM 55.9 °F 54.0 °F 93% 29.91 in 8.0 mi SSE 5.8 mph - 0.08 in   Overcast
5:56 AM 54.0 °F 53.1 °F 97% 29.91 in 5.0 mi SE 5.8 mph - N/A   Overcast
6:56 AM 53.1 °F 53.1 °F 100% 29.93 in 4.0 mi SE 4.6 mph - N/A   Overcast
7:56 AM 55.0 °F 54.0 °F 96% 29.91 in 4.0 mi SE 6.9 mph - N/A   Overcast
8:31 AM 55.4 °F 55.4 °F 100% 29.93 in 1.8 mi South 5.8 mph - 0.03 in Rain Heavy Rain
8:41 AM 55.4 °F 53.6 °F 94% 29.94 in 3.0 mi South 6.9 mph - 0.08 in Rain Light Rain
8:56 AM 55.9 °F 55.0 °F 97% 29.94 in 5.0 mi SSE 6.9 mph - 0.08 in Rain Light Rain
9:56 AM 57.0 °F 55.0 °F 93% 29.94 in 3.0 mi SSE 4.6 mph - 0.04 in Rain Rain
10:11 AM 57.2 °F 55.4 °F 94% 29.95 in 2.5 mi SSE 3.5 mph - 0.03 in Rain Rain
10:37 AM 57.2 °F 55.4 °F 94% 29.95 in 3.0 mi SSE 6.9 mph - 0.07 in Rain Light Rain
10:56 AM 57.0 °F 55.0 °F 93% 29.95 in 4.0 mi SE 6.9 mph - 0.08 in Rain Light Rain
11:56 AM 57.9 °F 55.9 °F 93% 29.96 in 9.0 mi SSW 3.5 mph - 0.00 in   Overcast
12:56 PM 60.1 °F 57.0 °F 90% 29.95 in 8.0 mi SSW 8.1 mph - 0.00 in Rain Light Rain
1:56 PM 59.0 °F 55.9 °F 90% 29.95 in 9.0 mi South 4.6 mph - 0.03 in Rain Light Rain
2:52 PM 59.0 °F 57.2 °F 94% 29.96 in 1.8 mi South 8.1 mph - 0.03 in Rain Rain
2:56 PM 59.0 °F 57.0 °F 93% 29.95 in 1.5 mi SSE 6.9 mph - 0.08 in Rain Heavy Rain
3:08 PM 59.0 °F 57.2 °F 94% 29.94 in 2.5 mi SSE 11.5 mph - 0.02 in Rain Light Rain
3:18 PM 59.0 °F 57.2 °F 94% 29.95 in 4.0 mi SSE 9.2 mph - 0.02 in Rain Light Rain
3:56 PM 59.0 °F 57.0 °F 93% 29.92 in 8.0 mi SSE 10.4 mph - 0.02 in   Overcast
4:56 PM 62.1 °F 55.9 °F 80% 29.91 in 10.0 mi SE 11.5 mph - N/A   Partly Cloudy
5:56 PM 63.0 °F 55.9 °F 78% 29.91 in 10.0 mi SE 10.4 mph - N/A   Clear
6:56 PM 62.1 °F 55.9 °F 80% 29.92 in 10.0 mi SE 4.6 mph - N/A   Clear
7:25 PM 62.6 °F 55.4 °F 77% 29.92 in 10.0 mi Calm Calm - N/A   Mostly Cloudy
7:46 PM 62.6 °F 55.4 °F 77% 29.92 in 10.0 mi South 6.9 mph - N/A   Scattered Clouds
7:56 PM 62.1 °F 55.9 °F 80% 29.93 in 10.0 mi Calm Calm - N/A   Scattered Clouds
8:56 PM 57.9 °F 55.0 °F 90% 29.93 in 10.0 mi South 6.9 mph - 0.00 in   Overcast
9:56 PM 54.0 °F 53.1 °F 97% 29.94 in 8.0 mi Calm Calm - N/A   Clear
10:56 PM 52.0 °F 51.1 °F 97% 29.94 in 4.0 mi Calm Calm - N/A   Scattered Clouds
11:42 PM 53.6 °F 53.6 °F 100% 29.93 in 1.8 mi Calm Calm - N/A   Overcast
11:56 PM 53.1 °F 52.0 °F 96% 29.93 in 2.0 mi Calm Calm - N/A   Overcast